Tracking 30995 objects as of 5-Jul-2025
HD Live streaming from Space Station
objects crossing your sky now

STARLINK-3861

Track STARLINK-3861 now!
10-day predictions
STARLINK-3861 is classified as:


NORAD ID: 52503
Int'l Code: 2022-049BE
Perigee: 545.9 km
Apogee: 547.9 km
Inclination: 53.2 °
Period: 95.4 minutes
Semi major axis: 6917 km
RCS: Unknown
Launch date: May 6, 2022
Source: United States (US)
Launch site: AIR FORCE EASTERN TEST RANGE (AFETR)
Your satellite tracking list
STARLINK-31440
Track 1 satellite(s)




NASA's NSSDC Master Catalog

Two Line Element Set (TLE):
1 52503U 22049BE  25185.96944232  .00000012  00000-0  18836-4 0  9995
2 52503  53.2175  71.0615 0001453  93.1262 266.9897 15.08839478175290
Source of the keplerian elements: AFSPC